CZ-6A DEB, 61280

Orbit data source: Space-Track

CZ-6A DEB, 61280 is space debris in LEO originally from a launch on Tue, 06 Aug 2024 UTC launched from the Taiyaun Space Center, China (TSC). Debris objects in space refer to the collection of defunct objects orbiting the Earth. Examples of debris include non-operational satellites, rocket bodies, and fragments generated from explosions, collisions, or faulty payload assembly.

Loading next visibility...
Identifier
61280, 2024-140SR
Orbit
LEO
Country
Flag of CNCN / PRC
Related business
Manufacturer
SAST
Mission
Spacecraft
Bus & Motor
Unknown
Mass
Unknown
Launch date (UTC)
2024-08-06 (2 years ago)
Launch vehicle
Unknown
Launch site
Taiyaun Space Center, China (TSC)
Object type
Payload
Rocket body
Debris
Shape & HBR
Unknown shape, 0.1 m
Radar Cross Section
Small (<0.1 m²)

Expand to show TLE details & history
Last TLE update: 14 hours ago

TLE from 14 hours ago
0 CZ-6A DEB
1 61280U 24140SR  26171.28115941  .00001740  00000-0  95184-3 0  9998
2 61280  88.9851 274.7476 0119700 248.6226 110.2151 14.08010570 93057
Epoch: 2026-06-20T06:44Z
TLE epoch observation values (Epoch: 2026-06-20T06:44:52.173Z)
Latitude
0.00004°
Longitude
-94.96782°
Altitude
900.102 km
Speed
7.386 km/s
True Right ascension
18h 18m 59s
True Declination
0° 00' 00"
Sunlit
Object was in full shadow at epoch
Visualization orbit readout
Latitude
Unknown
Longitude
Unknown
Altitude
Unknown
Speed
Unknown
Apparent Right ascension
Unknown
Apparent Declination
Unknown
Sunlit
N/A
Visualization observer readout
Local Sidereal Time
07:23:41
Azimuth
Unknown
Elevation
Unknown
Doppler factor
Unknown
Orbital elements
Apogee altitude
949.834 km
Perigee altitude
776.477 km
Semi-major axis
7,241.292 km
Eccentricity
0.01197
Inclination
88.9851°
RAAN
274.7476°
Arg. of periapsis
248.6226°
True anomaly
111.49554°
Mean anomaly
110.2151°
Eccentric anomaly
110.85599°
Mean motion
3.52224 °/min
Orbital period
102.21 mins
BSTAR
0.00095184
Loading maneuver chart data...
Computing Atmospheric mass density...
Loading historical data...
Loading historical data...
Loading historical data...
Loading historical data...
Loading historical data...
Loading historical data...
Loading historical data...

Documentation

Showing up to 5 results
|